Location: Proctor
(47.8934°N, 114.3048°W)
Time: 22:16:52
(UTC+00:00)

Tiros 1 despin weight - Pass Details

Date: 03 July 2024
Orbit: 576 x 620 km, 48.2° (Epoch: 19 July)

Event Time Altitude Azimuth Distance (km) Brightness Sun altitude
Rises 14:28:48 0° 198° (SSW) 2,835 ? 24.5°
Reaches altitude 10° 14:31:46 10° 177° (S) 1,946 ? 25.0°
Maximum altitude 14:34:35 17° 138° (SE) 1,575 ? 25.5°
Drops below altitude 10° 14:37:25 10° 99° (E) 1,969 ? 25.9°
Sets 14:40:27 0° 79° (E) 2,885 ? 26.4°
